TimePST,TemperatureF,Dew PointF,Humidity,Sea Level PressureIn,VisibilityMPH,Wind Direction,Wind SpeedMPH,Gust SpeedMPH,PrecipitationIn,Events,Conditions,WindDirDegrees,DateUTC
12:53 AM,21.0,19.0,92,30.39,9.0,North,5.8,-,N/A,,Overcast,350,2013-01-22 08:53:00
1:53 AM,21.0,19.0,92,30.40,9.0,Calm,Calm,-,N/A,,Overcast,0,2013-01-22 09:53:00
2:53 AM,21.0,19.0,92,30.39,7.0,East,4.6,-,N/A,,Overcast,80,2013-01-22 10:53:00
3:53 AM,19.9,18.0,92,30.38,8.0,North,3.5,-,N/A,,Overcast,350,2013-01-22 11:53:00
4:53 AM,19.9,18.0,92,30.38,10.0,NNW,4.6,-,N/A,,Overcast,340,2013-01-22 12:53:00
5:53 AM,19.9,18.0,92,30.37,10.0,NNW,8.1,-,N/A,,Overcast,330,2013-01-22 13:53:00
6:53 AM,19.9,18.0,92,30.36,10.0,NNW,5.8,-,N/A,,Overcast,340,2013-01-22 14:53:00
7:53 AM,21.0,18.0,88,30.37,9.0,NNW,4.6,-,N/A,,Overcast,340,2013-01-22 15:53:00
8:53 AM,21.0,18.0,88,30.37,8.0,NNW,4.6,-,N/A,,Overcast,340,2013-01-22 16:53:00
9:53 AM,21.0,19.0,92,30.37,6.0,NNE,5.8,-,N/A,,Overcast,20,2013-01-22 17:53:00
10:53 AM,21.0,19.0,92,30.38,8.0,North,3.5,-,N/A,,Overcast,350,2013-01-22 18:53:00
11:53 AM,21.9,18.0,85,30.36,10.0,North,3.5,-,N/A,,Overcast,360,2013-01-22 19:53:00
12:53 PM,21.9,18.0,85,30.33,10.0,North,5.8,-,N/A,,Overcast,350,2013-01-22 20:53:00
1:53 PM,21.9,18.0,85,30.32,10.0,NNE,5.8,-,N/A,,Overcast,20,2013-01-22 21:53:00
2:53 PM,21.9,18.0,85,30.32,10.0,North,3.5,-,N/A,,Overcast,360,2013-01-22 22:53:00
3:07 PM,21.2,17.6,86,30.26,10.0,NNW,3.5,-,N/A,,Overcast,340,2013-01-22 23:07:00
3:53 PM,21.9,17.1,82,30.30,10.0,NW,3.5,-,N/A,,Overcast,320,2013-01-22 23:53:00
4:53 PM,21.9,17.1,82,30.30,10.0,Calm,Calm,-,N/A,,Overcast,0,2013-01-23 00:53:00
5:53 PM,21.9,17.1,82,30.30,10.0,Calm,Calm,-,N/A,,Overcast,0,2013-01-23 01:53:00
6:53 PM,21.9,17.1,82,30.28,10.0,Calm,Calm,-,N/A,,Overcast,0,2013-01-23 02:53:00
7:53 PM,21.9,17.1,82,30.26,10.0,Calm,Calm,-,N/A,,Overcast,0,2013-01-23 03:53:00
8:53 PM,23.0,17.1,78,30.26,10.0,North,4.6,-,N/A,,Overcast,350,2013-01-23 04:53:00
9:53 PM,23.0,17.1,78,30.27,10.0,Calm,Calm,-,N/A,,Overcast,0,2013-01-23 05:53:00
10:53 PM,23.0,18.0,81,30.25,10.0,NNE,3.5,-,N/A,,Overcast,30,2013-01-23 06:53:00
11:53 PM,21.9,18.0,85,30.24,10.0,ENE,3.5,-,N/A,,Overcast,60,2013-01-23 07:53:00